RH
88 88 93 94 93 85 66 44 28 28 40 54 66 74 81 84 88 90 89 89 90 91 93 91 77 61 50 39 24 13 9 10 8 13 32 22 10 31 32 29 29 13 9 10 9 14 22 22 16 18 18 16 15 14 13 10 9 7 7 7 7 6 5 4 3 3 3 2 4 5 5 5 5 4 6 10 11 12 9 16 37 46 45 49 64 79 89 94
78 79 84 88 91 92 91 83 61 37 25 35 48 55 65 73 81 85 86 85 86 88 90 91 79 64 57 46 32 18 9 11 25 31 23 10 10 23 22 22 24 17 13 9 11 17 18 17 14 14 15 14 13 12 12 10 9 8 7 8 7 6 4 4 3 3 2 2 4 5 6 5 6 4 6 9 13 13 7 21 47 63 71 74 80 86 91 99
68 70 72 75 83 88 92 94 92 75 43 29 36 40 44 55 69 78 84 82 82 85 86 90 80 68 60 53 40 18 16 32 46 42 22 14 13 10 13 16 17 16 13 9 15 19 16 14 12 12 13 12 11 10 10 9 9 8 7 8 7 5 4 4 3 3 2 2 3 5 6 6 6 4 5 6 11 12 7 24 51 63 77 85 85 89 96 99
61 62 61 59 66 76 87 92 92 94 74 44 32 36 35 39 54 67 79 81 80 82 83 88 80 70 62 60 45 20 37 54 45 40 28 19 17 11 9 11 14 13 12 10 14 21 19 16 12 10 10 11 10 9 9 8 8 9 8 8 6 4 4 4 3 3 3 3 3 5 7 6 5 6 7 6 10 14 6 17 47 63 77 86 86 89 94 96
62 62 61 57 58 61 73 87 91 95 93 69 38 32 34 34 40 50 68 79 82 82 81 85 80 71 65 63 48 34 57 52 30 40 34 23 25 19 10 8 13 12 10 10 13 22 23 20 15 10 9 9 9 8 8 7 7 8 8 7 5 4 4 4 3 3 3 4 4 4 6 5 5 8 11 12 12 14 10 17 47 62 68 78 82 88 93 95
60 63 66 64 64 62 63 77 89 94 98 89 55 32 31 35 35 37 52 69 79 82 79 82 80 72 68 65 51 51 68 46 29 42 32 25 28 24 18 10 12 12 11 11 14 22 22 19 16 11 9 8 8 7 7 7 7 8 8 6 5 5 3 4 3 3 4 4 5 4 6 4 4 7 8 14 13 16 19 23 48 60 57 65 73 81 89 94
59 59 65 67 68 69 69 73 80 87 94 97 80 50 32 32 34 34 41 55 70 76 77 81 78 73 71 66 57 57 63 43 30 35 26 25 24 24 24 15 14 12 10 15 19 20 19 16 15 12 10 8 8 7 6 6 6 7 8 6 5 5 4 5 3 4 6 5 6 5 5 4 5 6 5 11 13 22 33 33 50 64 63 70 76 81 87 90
64 61 63 68 71 76 79 81 81 82 85 90 91 75 52 38 31 32 38 46 61 71 74 79 77 74 73 71 67 59 53 39 28 29 28 28 26 26 25 21 21 16 13 20 21 18 16 14 13 13 11 9 8 6 6 5 6 7 7 7 6 5 4 4 4 5 6 7 7 5 5 5 6 5 6 19 21 27 42 44 53 67 73 78 80 84 87 88
67 69 68 69 72 77 80 83 82 80 82 84 89 88 78 59 34 27 37 43 56 71 73 78 80 75 76 81 77 61 46 36 29 28 29 29 28 28 27 24 27 31 25 21 22 17 14 13 11 12 11 9 7 6 5 5 6 6 6 7 5 6 4 4 4 4 7 8 5 5 6 4 7 4 12 40 43 35 45 50 56 65 69 76 79 84 89 90
69 71 72 71 73 75 77 80 79 78 82 83 85 88 90 82 53 28 33 44 53 69 73 78 82 75 81 86 73 57 41 29 26 27 29 30 28 26 27 22 26 40 34 21 21 18 14 12 10 11 11 9 7 6 5 5 5 5 6 6 6 6 4 5 5 4 7 7 5 6 4 5 7 1 22 65 62 45 53 59 67 71 68 77 85 86 88 89
71 71 70 71 74 76 76 78 80 80 82 82 83 84 85 89 73 39 32 44 53 65 72 77 81 78 87 86 67 55 41 27 30 36 36 35 31 25 25 22 22 36 39 25 18 17 15 13 10 10 10 9 8 5 5 5 4 4 5 5 6 5 5 5 5 7 7 7 6 5 4 7 4 4 40 78 66 50 53 57 70 79 82 87 85 80 83 87
71 72 71 72 76 77 76 77 80 81 80 81 84 85 83 85 81 54 35 40 52 64 69 72 77 83 92 87 71 62 48 36 40 45 42 38 34 26 24 24 21 28 39 31 19 17 15 13 11 9 9 9 7 6 5 5 4 4 4 5 6 5 6 5 6 8 6 7 6 4 8 5 4 28 66 77 64 55 50 58 73 75 83 90 84 82 87 88
72 72 73 76 77 78 77 76 78 79 80 80 83 86 85 85 84 67 44 36 45 59 66 69 74 85 93 85 74 67 56 46 45 48 45 41 37 29 24 24 23 24 31 32 24 18 14 13 11 8 9 8 7 7 5 5 4 4 5 6 7 7 6 5 6 7 6 7 4 6 9 5 20 56 78 71 61 57 55 69 80 73 82 93 93 95 94 91
72 73 73 75 76 77 78 79 78 77 79 79 81 84 84 87 83 70 55 39 37 50 62 67 72 88 94 81 72 65 57 49 44 46 46 43 37 30 24 22 23 23 25 28 26 22 15 12 11 9 9 8 7 6 5 6 5 5 5 6 8 9 7 5 5 6 7 6 4 8 6 14 46 70 78 74 60 60 72 85 88 86 92 98 100 100 98 95
70 75 76 75 75 75 75 78 78 76 77 75 75 75 76 80 75 66 59 44 39 47 55 62 71 89 92 74 64 57 50 50 49 46 41 40 38 30 22 19 20 22 21 22 23 25 20 12 10 9 8 9 9 7 6 6 5 6 7 9 8 8 8 5 5 6 7 6 5 7 5 26 59 67 74 79 67 68 84 94 96 95 92 94 99 95 94 95
73 79 81 80 79 77 73 73 74 74 73 70 69 69 66 67 66 65 61 48 42 47 60 73 79 89 86 65 54 51 48 48 48 43 34 35 37 28 20 18 19 19 19 18 19 23 22 13 9 8 8 9 9 8 8 7 7 7 8 11 8 8 9 5 5 5 5 7 5 5 10 35 58 63 72 77 74 74 81 91 92 88 86 90 91 85 88 89
78 81 85 84 82 80 74 69 69 69 69 67 66 65 63 64 67 68 64 50 39 50 73 81 76 78 76 63 53 48 46 41 38 36 32 32 30 22 18 17 18 18 17 16 16 19 21 15 8 7 8 8 9 9 10 10 10 8 8 9 8 8 8 5 6 5 5 6 5 5 9 30 52 62 72 73 74 72 76 89 88 87 93 93 90 87 89 84
81 80 84 85 82 82 77 70 66 65 66 65 62 61 61 64 67 72 77 64 53 69 82 77 77 72 59 55 50 39 36 34 29 27 26 25 21 17 17 17 17 17 16 15 16 17 19 15 8 7 8 9 10 10 12 12 10 9 9 9 9 8 6 6 5 4 7 4 6 7 4 29 56 62 67 71 74 70 71 84 84 87 93 90 91 93 93 88
86 80 80 81 82 86 84 78 68 62 66 64 59 64 69 74 76 81 91 81 68 75 72 66 77 64 36 38 43 35 32 30 27 26 23 20 19 17 18 19 18 15 14 16 16 16 17 14 9 9 10 11 12 10 11 10 8 8 8 9 9 7 5 5 4 4 7 4 7 6 3 35 62 61 66 72 72 69 71 80 82 87 90 87 91 90 92 95
90 85 82 80 84 88 87 85 73 65 69 66 68 79 79 79 78 77 83 77 66 63 52 49 64 56 33 31 35 33 32 28 28 30 26 23 22 20 19 20 18 15 14 16 18 16 15 14 11 10 10 11 12 10 8 7 8 7 7 8 6 6 6 3 3 4 4 6 6 3 11 39 56 60 70 72 68 68 71 76 78 84 90 89 87 86 92 98
91 90 87 83 85 87 87 88 76 67 68 68 80 89 75 66 65 64 68 66 59 58 49 42 48 53 45 38 35 34 32 29 27 26 26 24 21 19 18 20 19 16 16 16 17 16 14 14 11 8 8 9 10 9 7 7 8 6 6 7 6 5 5 3 4 3 4 6 4 12 33 47 50 58 69 70 66 66 69 72 75 80 90 92 86 89 97 99
93 92 90 87 86 87 88 88 77 67 65 69 84 89 74 66 64 61 63 61 54 53 53 46 42 43 43 43 43 42 38 33 27 23 23 21 18 16 15 18 20 18 17 16 16 15 14 13 9 8 8 9 8 7 8 8 7 7 6 6 7 5 4 4 3 3 6 5 8 27 45 46 46 54 62 65 63 62 66 70 75 81 89 92 88 93 100 98
92 91 89 87 86 86 90 89 76 63 58 67 83 84 72 66 63 61 67 69 58 48 48 48 45 39 35 38 41 42 39 33 28 25 21 17 15 14 13 15 18 17 17 17 17 14 14 12 9 8 8 7 7 7 8 9 8 8 7 6 6 4 4 5 3 4 6 4 12 31 39 43 52 59 63 63 58 60 67 69 72 80 86 87 89 94 97 97
89 89 89 90 88 90 92 82 66 59 61 74 85 79 71 71 70 70 75 74 59 45 41 41 41 41 34 32 36 38 36 32 30 27 22 17 13 12 13 13 15 17 17 16 15 12 11 10 8 8 7 7 7 8 8 9 9 8 7 6 6 5 4 4 3 5 6 4 15 35 47 54 60 63 68 65 58 63 71 72 71 76 80 82 89 95 92 95
87 87 89 91 91 90 86 71 61 69 77 84 85 77 72 71 72 76 76 73 59 41 36 33 32 36 35 32 33 34 33 31 31 29 24 20 15 13 13 12 14 17 17 16 14 12 10 8 7 7 7 7 7 8 7 8 9 9 7 6 5 5 4 4 5 6 8 7 14 36 58 65 60 57 61 62 60 63 68 72 69 71 78 81 89 95 91 93
88 87 87 89 89 82 77 73 75 83 84 83 81 76 74 68 68 75 71 67 58 34 24 27 27 29 32 33 30 30 32 29 29 31 25 20 18 16 14 12 13 15 15 14 12 11 9 7 7 7 7 7 7 7 7 7 9 9 7 5 5 5 4 5 6 8 11 9 11 25 45 61 63 55 57 62 62 62 66 70 67 67 78 86 88 90 92 94
90 88 87 87 79 70 76 80 79 82 83 84 81 76 74 69 72 78 71 68 54 26 16 22 24 24 26 28 28 30 34 29 27 29 24 20 18 16 17 14 13 14 13 13 14 11 9 7 7 7 7 7 8 9 8 7 8 8 6 6 7 7 5 5 7 11 13 10 11 16 26 49 63 54 53 62 63 61 65 70 67 65 72 82 84 87 93 94
92 88 86 78 61 59 75 80 78 83 86 88 87 79 69 69 78 75 69 67 42 14 14 19 21 24 24 25 26 27 29 26 26 27 23 21 18 15 17 15 13 14 12 13 16 12 7 8 8 8 8 8 9 9 7 6 7 6 6 7 8 7 5 5 8 13 13 13 16 15 18 39 55 52 51 62 66 62 60 62 65 69 70 76 83 87 92 91
92 87 81 63 50 62 80 85 88 86 82 87 89 77 65 73 85 73 64 64 38 17 20 20 22 26 22 22 25 25 24 23 24 23 22 22 18 15 16 15 13 12 12 11 13 10 7 8 8 7 9 9 8 7 5 6 6 6 7 7 6 6 5 6 9 10 13 18 19 15 19 32 43 49 55 65 66 58 55 54 58 68 73 80 85 84 88 88
87 82 71 53 56 80 90 91 94 82 76 86 83 72 69 73 75 68 68 66 50 45 40 24 23 26 23 24 25 24 24 22 20 19 21 22 17 15 15 15 13 10 12 11 10 9 7 8 8 7 8 7 6 6 5 6 6 6 7 5 6 6 6 8 8 9 18 26 20 12 18 27 33 41 49 56 54 49 52 53 56 65 73 83 87 81 87 92
74 68 59 52 65 89 94 91 92 86 81 81 73 73 74 66 60 63 70 63 57 67 59 35 25 22 23 27 25 24 24 21 18 17 21 21 17 17 17 19 18 15 15 14 11 10 8 9 8 7 7 6 6 6 5 5 5 6 6 5 8 9 11 14 13 16 28 31 21 12 15 23 30 36 41 44 42 43 47 47 55 68 72 80 87 82 85 89
64 54 51 58 67 78 89 90 88 88 84 76 77 80 70 61 63 62 60 59 65 77 71 56 45 30 22 25 23 22 24 22 18 16 19 20 19 19 20 23 22 21 21 17 13 11 9 9 8 7 7 6 6 6 6 7 6 8 8 8 11 13 19 28 27 28 32 28 18 12 13 19 25 29 36 42 41 41 41 39 51 66 70 79 86 82 80 83
60 49 50 67 76 76 85 90 84 85 84 81 86 82 67 68 71 60 55 64 76 79 70 63 59 41 26 24 23 20 23 24 18 15 17 19 21 21 21 20 16 17 20 17 14 13 13 11 8 8 8 5 6 6 9 10 8 10 9 8 12 16 28 37 32 29 30 24 16 10 12 16 20 25 32 37 37 37 38 39 48 58 66 78 79 74 76 82
57 54 57 70 83 86 87 90 86 82 81 89 91 82 77 76 65 59 63 71 79 76 64 56 56 50 34 25 23 18 22 25 16 14 16 17 23 24 23 21 14 14 17 16 15 14 15 14 8 7 7 5 6 6 8 8 7 8 6 7 11 14 25 33 28 27 27 21 15 12 14 15 22 33 33 30 31 32 31 38 52 58 61 70 68 67 77 84
56 67 73 76 84 86 84 88 89 85 85 93 90 82 83 73 60 64 67 69 76 71 59 50 50 55 41 25 22 18 21 24 15 14 17 17 22 23 21 21 16 14 15 17 17 14 14 14 8 8 7 6 7 5 5 5 7 8 4 8 13 10 15 22 21 23 23 21 16 15 21 22 27 37 31 24 31 31 24 36 59 65 62 64 65 70 83 88
61 80 87 86 88 81 76 81 86 90 93 93 91 84 74 59 55 63 65 69 74 68 62 55 49 52 40 24 23 19 17 20 15 14 15 14 18 18 17 18 14 12 14 17 18 15 17 16 10 9 8 7 7 5 4 5 7 8 7 9 11 7 10 17 20 19 20 24 18 15 27 35 34 37 29 23 29 27 23 40 62 65 60 61 66 76 88 90
65 82 82 80 80 72 70 79 84 90 93 92 94 82 61 50 50 52 59 68 68 63 70 68 52 44 35 26 24 18 17 18 15 15 15 15 17 14 13 14 11 11 12 13 14 14 17 18 11 9 9 6 6 5 3 4 5 7 10 10 8 7 9 13 18 20 21 24 20 14 24 33 34 38 35 27 27 28 32 48 63 64 60 59 65 76 86 90
74 84 80 75 72 65 70 81 84 86 90 93 92 75 58 57 52 51 65 73 67 65 71 68 50 34 29 28 22 15 18 20 16 15 15 16 18 14 12 13 11 10 10 11 13 14 16 19 13 8 8 6 4 5 5 5 4 6 8 8 9 12 13 14 18 22 23 24 21 15 16 22 25 31 35 27 26 37 46 49 55 60 61 63 69 72 80 91
88 90 84 79 75 70 75 84 85 88 94 92 83 70 67 70 59 57 70 68 62 65 65 62 53 35 24 23 19 14 19 20 17 16 17 18 18 14 11 12 12 11 11 11 14 15 16 20 17 8 6 6 5 6 8 8 6 5 6 6 8 11 12 14 16 17 20 22 22 18 15 16 17 23 30 23 24 48 60 51 47 51 58 67 73 72 79 93
95 89 80 79 80 76 79 88 92 96 97 88 78 71 73 77 67 60 64 59 55 63 65 64 62 44 22 14 14 16 18 18 16 15 16 16 16 15 11 10 12 11 11 11 12 14 17 19 17 9 6 7 7 7 8 9 7 5 7 8 8 9 8 11 13 12 14 19 21 21 19 16 13 20 27 20 25 46 56 52 46 48 60 70 73 76 83 92
96 89 81 84 85 80 82 90 95 97 94 87 87 86 82 81 75 68 66 60 56 59 63 65 66 55 35 18 13 16 17 17 15 14 15 14 15 17 12 10 12 10 12 14 12 16 21 19 17 14 10 9 9 7 6 6 6 5 7 8 8 8 9 13 15 13 12 14 18 18 18 16 14 19 23 20 27 37 41 51 55 55 66 72 71 78 87 92
95 91 86 87 86 83 88 92 91 95 95 88 91 97 93 88 85 75 64 57 58 58 58 59 57 53 45 27 14 15 16 15 14 14 15 14 15 16 11 10 11 10 13 15 13 18 24 21 19 18 13 9 8 6 6 6 5 5 7 6 6 7 9 14 17 16 13 13 15 13 15 27 30 26 23 21 27 34 38 51 59 60 69 73 72 79 86 92
94 90 88 89 88 90 98 93 85 93 97 91 90 96 96 89 81 72 63 59 62 59 57 58 51 44 41 26 13 15 17 15 15 14 13 14 13 12 10 9 10 11 13 15 16 20 23 21 21 18 12 8 7 6 5 5 4 6 7 5 6 7 8 10 12 15 15 14 17 14 18 39 45 34 25 21 25 35 41 46 51 58 67 70 73 80 86 92
95 90 89 91 92 94 99 93 87 92 94 93 92 90 88 82 72 70 69 65 62 59 60 57 44 37 33 19 11 15 15 15 16 13 12 15 13 10 10 10 10 11 13 16 19 20 20 22 22 23 20 17 14 10 8 7 6 8 8 6 7 6 6 11 11 14 19 16 15 15 21 40 44 32 25 21 19 27 37 44 51 59 65 69 77 85 89 94
96 89 88 94 98 97 94 90 92 95 93 95 94 85 81 75 67 67 66 59 56 58 61 54 38 31 25 14 13 15 13 16 19 15 14 15 12 10 9 9 10 11 12 15 16 15 19 23 22 23 25 24 20 15 11 9 8 9 8 6 8 7 7 12 14 16 20 16 12 13 24 41 41 27 21 20 18 21 29 45 58 62 67 75 83 89 91 95
94 85 82 86 92 97 95 90 94 97 95 97 91 80 78 72 61 62 63 61 60 58 57 53 40 27 18 14 18 16 12 16 18 17 17 16 14 11 9 9 9 11 14 16 15 14 17 22 20 19 19 17 15 12 9 9 9 10 9 7 7 8 8 12 15 15 16 16 14 14 27 44 42 29 23 20 20 22 26 40 57 66 74 81 86 90 92 93
94 88 84 83 85 89 90 90 95 98 97 98 91 84 85 71 54 57 61 61 65 64 60 53 36 21 16 18 23 19 14 16 17 17 17 17 15 11 9 9 9 12 17 16 14 15 18 22 23 21 16 12 10 10 8 9 9 9 9 8 8 9 10 14 18 16 14 18 18 16 29 43 38 30 25 19 22 30 33 41 57 71 79 83 88 91 91 91
88 84 83 87 87 82 83 88 92 94 94 96 91 88 88 73 59 61 59 58 64 64 60 50 31 16 15 18 22 20 16 17 19 18 17 15 15 14 10 10 10 13 15 12 11 16 19 22 22 19 16 12 10 10 9 8 9 8 9 10 10 10 12 16 19 16 15 19 17 18 32 40 30 23 24 23 29 37 41 47 61 72 78 84 90 90 89 91
88 84 80 86 87 81 81 83 84 89 94 95 93 89 84 73 65 59 56 64 71 60 51 51 37 18 11 14 19 22 22 22 20 20 20 16 15 17 15 14 13 12 12 12 13 15 19 22 20 17 17 15 13 12 10 10 10 8 8 10 10 10 10 12 14 13 15 18 15 18 31 34 24 19 22 28 35 40 45 55 66 71 76 86 90 88 89 93
95 95 89 88 86 79 75 77 82 90 93 93 95 91 83 74 67 58 53 65 74 62 51 56 49 26 11 16 28 36 39 36 24 18 21 21 17 17 17 15 14 12 12 15 16 17 23 24 19 17 20 19 17 16 14 13 11 10 10 10 11 12 11 12 14 14 16 17 17 20 23 21 20 21 23 29 39 49 57 65 70 72 76 83 86 87 90 93
99 99 96 95 89 76 71 78 86 88 87 91 94 90 82 75 68 63 55 52 60 60 53 58 58 37 22 30 43 48 49 45 30 18 18 19 15 15 16 13 13 14 15 18 18 20 26 25 17 19 25 24 22 21 17 14 13 14 15 13 13 15 15 14 14 15 16 18 21 23 19 14 17 22 24 26 35 50 62 67 71 74 79 82 82 84 87 90
98 94 96 99 92 78 73 79 82 81 83 87 86 81 79 74 65 63 60 50 49 50 48 53 53 41 41 55 58 51 46 44 37 24 14 12 11 12 13 11 11 14 15 19 20 20 23 24 19 22 28 28 26 23 19 17 19 19 17 15 15 15 15 15 15 16 17 18 21 21 17 15 16 18 23 28 34 45 58 63 65 70 79 82 80 81 84 88
Wind_Speed
16 16 17 17 17 17 17 17 18 19 21 22 22 22 21 20 18 17 17 16 16 17 18 18 18 17 16 16 16 17 17 16 14 12 17 19 16 17 17 16 15 17 18 15 13 13 11 13 17 16 17 17 18 18 19 20 20 15 9 9 10 10 11 11 12 11 13 11 6 9 3 2 2 3 4 4 5 7 15 5 24 23 23 26 30 35 33 30
15 15 16 17 19 19 18 17 17 17 18 19 21 22 22 22 21 19 18 17 17 17 18 19 19 17 16 16 16 17 17 15 17 20 21 18 15 19 22 23 21 17 17 17 14 14 14 14 17 17 18 18 18 19 18 19 20 14 7 8 10 10 12 14 16 15 17 14 7 9 5 3 4 6 3 3 6 9 12 9 28 27 28 31 33 33 30 27
17 16 16 16 17 19 19 19 17 17 18 17 18 19 20 22 22 21 19 18 18 18 18 19 20 17 15 15 15 15 16 18 21 22 19 15 17 19 21 24 24 20 18 19 16 14 15 15 15 18 19 18 18 19 18 18 18 16 11 8 10 12 15 17 19 21 17 10 0 6 6 4 5 7 6 5 8 9 11 10 24 25 28 31 31 31 28 26
18 18 18 17 17 17 18 19 18 17 17 17 17 17 18 19 20 21 20 19 18 18 18 18 20 18 15 15 14 13 16 20 16 11 11 11 14 16 19 22 23 22 21 20 18 17 16 16 17 19 19 17 19 21 18 19 16 14 14 10 11 15 15 19 24 23 14 7 7 4 4 3 6 6 7 8 9 8 13 14 25 30 31 32 31 29 27 26
19 19 18 18 17 17 17 18 18 17 17 17 17 17 17 17 18 20 20 20 19 18 18 17 19 18 16 15 12 12 13 11 2 4 5 7 9 11 15 20 21 21 20 19 19 18 16 16 18 21 19 15 17 18 17 23 19 12 15 16 17 18 13 19 26 18 10 5 8 9 1 7 9 3 7 9 10 7 6 8 29 36 34 35 31 30 28 27
20 19 18 18 17 17 17 17 17 17 17 17 17 17 17 17 17 18 19 19 19 18 18 17 18 18 17 15 12 10 10 4 4 1 6 10 11 10 11 16 20 20 20 20 20 18 17 17 18 20 19 14 15 16 17 25 22 11 13 20 22 22 17 20 23 9 5 6 6 10 9 11 9 6 10 11 14 6 7 4 29 33 30 32 30 30 28 26
20 20 19 18 18 17 17 17 16 16 17 17 17 17 16 17 17 17 17 18 19 19 18 17 17 17 16 16 13 11 16 14 4 6 14 17 14 9 8 12 17 20 21 21 21 19 19 19 19 19 16 13 16 18 19 23 23 15 12 17 20 23 22 25 24 6 3 8 8 14 13 11 8 9 11 10 14 2 16 14 30 30 28 29 27 27 26 26
20 20 19 19 18 18 17 16 16 16 16 17 18 18 17 17 16 16 16 17 18 18 17 17 16 17 15 14 14 12 18 20 12 9 12 13 9 7 6 7 12 18 22 22 22 21 21 21 21 20 14 13 16 18 21 20 19 18 15 16 18 22 23 26 27 10 5 9 13 17 13 12 10 12 12 5 4 8 21 22 29 25 26 27 26 26 24 26
19 18 18 18 18 18 18 17 16 16 16 16 17 18 18 18 16 15 16 16 17 17 16 16 15 15 14 13 14 14 16 17 13 8 5 6 5 6 8 8 11 15 20 22 22 22 22 22 22 21 15 15 17 18 21 18 13 16 18 19 18 21 22 23 25 16 10 11 14 15 13 15 14 15 8 10 10 8 15 16 20 21 22 22 23 25 24 25
18 18 18 18 18 18 18 18 17 17 16 16 16 17 17 18 16 15 15 15 16 16 16 15 15 15 13 12 13 13 11 8 6 5 4 6 7 9 10 10 11 14 19 21 24 25 25 22 20 21 18 16 17 17 20 17 13 17 20 22 20 22 22 18 17 17 15 13 14 14 13 16 17 17 4 15 13 9 15 13 11 9 12 17 22 24 24 23
17 17 17 17 17 18 18 17 17 17 17 16 16 17 17 18 17 15 14 15 15 15 15 14 14 14 12 14 17 16 11 8 5 7 8 10 11 12 11 11 11 14 18 21 24 25 26 23 20 19 16 15 17 18 20 21 18 20 20 19 20 22 22 16 13 16 15 13 17 16 13 16 19 14 5 15 11 11 14 14 8 7 10 13 20 23 21 20
17 17 17 17 16 17 17 17 17 17 17 17 17 16 17 18 18 15 13 14 15 15 15 14 14 13 13 18 26 25 20 20 18 17 14 14 14 13 12 13 13 13 16 20 23 24 25 24 23 20 16 14 15 13 16 23 22 21 18 12 14 18 19 18 16 17 16 12 18 16 12 15 14 5 13 15 14 16 18 18 14 5 6 11 15 18 18 19
17 17 17 17 17 17 17 17 17 17 18 18 17 17 16 17 18 15 13 14 14 14 14 13 14 12 14 23 28 25 24 27 26 22 19 18 17 16 15 16 16 15 15 18 20 22 24 25 25 24 21 17 15 12 11 18 21 19 16 10 10 13 15 18 17 17 17 14 18 15 9 11 6 9 15 17 20 24 22 18 16 12 9 8 10 15 18 19
17 17 18 18 18 17 17 17 17 17 18 18 18 18 17 17 17 15 13 13 13 14 14 13 12 12 18 27 27 24 23 24 27 26 24 21 19 18 17 17 18 18 17 16 17 19 22 24 25 24 24 21 17 16 12 12 14 14 13 10 9 8 11 17 17 16 15 14 19 15 9 7 7 11 11 15 25 28 21 19 18 14 8 5 7 11 17 21
16 17 18 19 19 19 18 18 18 18 18 19 19 19 18 18 17 14 13 13 12 12 12 12 12 12 18 26 25 19 17 20 27 28 24 22 20 19 17 17 19 20 19 18 16 16 18 23 25 22 21 23 19 15 12 9 9 10 11 10 10 9 10 15 19 18 16 14 20 17 8 5 8 10 10 11 20 25 22 21 20 17 14 9 9 10 12 19
16 18 19 19 20 20 20 20 19 19 19 19 20 19 19 17 16 14 12 13 12 10 10 11 13 13 15 19 18 17 17 21 26 23 21 23 22 20 17 16 19 20 20 19 17 16 17 21 25 23 19 18 15 12 10 9 9 10 11 10 11 11 10 12 18 22 20 15 18 18 8 5 9 11 13 13 16 20 20 20 18 21 22 17 18 17 15 17
18 18 19 20 21 21 21 21 20 20 20 20 19 19 18 16 16 15 13 12 11 10 11 12 11 14 17 18 17 18 20 21 19 18 19 21 21 20 17 16 18 19 20 19 18 19 18 20 21 19 17 14 11 11 10 11 11 10 11 10 11 14 12 11 14 21 23 18 16 18 13 6 12 13 13 14 15 17 17 15 16 20 18 15 18 16 16 18
20 20 20 20 21 21 22 22 21 21 20 20 19 17 15 15 16 16 15 12 9 9 12 14 12 9 14 20 22 21 17 14 14 15 15 17 20 20 18 18 17 19 20 18 20 23 19 18 16 12 12 12 11 13 12 12 13 12 11 10 10 13 14 14 13 17 22 21 17 17 16 8 15 14 12 13 13 15 16 12 14 17 14 16 15 10 14 19
22 21 21 21 21 22 22 22 22 21 20 20 18 15 14 14 15 16 16 14 12 10 8 13 19 11 6 9 17 19 15 8 7 10 11 13 16 17 18 18 17 21 20 14 17 24 18 13 14 12 12 15 16 17 15 13 14 15 14 12 12 12 13 17 15 17 22 19 17 17 15 12 14 12 11 13 12 13 15 14 13 14 13 16 13 9 14 17
23 22 22 22 22 22 23 23 22 20 19 20 16 13 14 12 11 11 13 18 22 20 14 15 25 25 18 14 9 10 13 12 10 12 14 13 13 16 18 18 18 19 18 13 14 22 20 11 12 15 16 19 20 20 19 16 16 17 15 13 16 14 11 17 16 17 20 15 16 17 12 15 14 11 11 12 13 12 13 15 14 13 13 13 13 14 14 14
23 22 22 22 22 22 23 23 22 19 19 18 14 13 14 13 10 6 6 13 22 25 25 23 22 26 27 25 19 11 11 14 16 16 16 18 16 15 18 18 16 13 15 17 15 19 19 13 16 20 19 20 21 21 19 19 20 17 14 13 14 14 12 17 16 17 20 13 14 13 12 15 14 12 11 11 11 10 12 15 15 15 15 14 17 19 15 14
22 21 22 23 23 23 23 22 21 19 19 17 14 16 17 17 14 11 10 12 17 22 26 28 27 27 25 27 27 18 15 15 14 15 16 22 22 17 19 19 14 11 15 17 13 14 16 15 20 21 18 19 21 21 19 21 22 15 12 12 11 13 12 15 17 18 19 11 10 16 14 11 13 13 11 10 9 9 11 14 15 16 17 19 21 21 19 17
22 22 23 22 21 22 22 21 19 18 19 18 16 18 18 18 17 15 14 13 15 20 23 26 28 29 27 27 26 19 16 15 13 14 16 21 24 22 19 17 15 14 16 17 15 14 14 15 19 20 19 21 21 21 20 18 17 14 12 11 10 14 14 12 16 19 18 10 8 15 12 8 11 11 9 11 10 9 10 11 13 14 16 20 23 24 22 18
23 23 22 20 19 20 20 19 19 19 19 17 18 19 17 17 17 14 11 10 12 17 23 25 25 27 29 27 23 19 18 17 16 16 16 19 24 23 19 17 18 15 15 21 22 18 15 14 18 21 21 22 21 21 22 15 12 15 16 13 10 15 18 12 10 15 15 12 11 13 9 5 8 8 9 10 11 11 11 11 12 15 15 18 22 24 22 19
23 22 21 18 17 17 17 18 16 14 14 14 15 17 15 16 17 12 7 6 9 15 21 23 23 24 28 26 23 21 19 19 21 19 17 21 23 19 17 19 16 14 18 24 23 17 15 17 20 22 21 23 22 19 20 16 11 14 17 18 14 16 21 15 12 13 9 11 13 14 7 3 5 7 9 9 9 10 12 12 14 17 17 19 22 23 23 22
22 21 20 17 16 15 15 14 11 9 10 11 12 12 12 12 13 9 4 4 7 10 14 17 17 18 23 25 25 23 16 18 24 24 20 22 24 19 14 15 13 15 19 19 15 10 12 19 21 21 22 24 22 16 19 20 12 10 14 18 16 15 21 19 16 13 8 9 12 14 7 3 3 6 9 9 8 10 12 11 13 17 21 21 21 24 28 27
21 21 20 17 14 13 12 11 12 13 11 10 10 9 9 9 7 4 3 5 5 7 11 15 14 13 21 25 25 21 11 13 20 26 26 21 25 24 15 13 13 14 16 12 10 9 13 21 21 22 23 20 17 14 18 22 15 9 13 17 19 18 21 17 14 10 8 8 11 13 10 4 4 7 9 10 9 10 12 11 12 16 21 22 21 23 28 29
21 20 19 16 13 11 12 13 14 13 10 7 7 8 8 6 4 3 4 5 2 3 7 13 14 12 18 23 27 25 16 12 13 21 29 23 23 25 16 15 16 15 18 14 11 12 17 21 21 23 21 15 16 16 18 22 16 9 14 19 19 17 14 15 13 9 10 9 9 13 13 7 5 7 9 11 11 11 13 14 13 14 16 16 18 20 21 24
20 19 16 13 11 10 11 13 12 11 8 6 6 6 3 3 3 2 4 4 3 3 2 8 13 11 16 19 25 28 21 17 12 18 28 24 24 24 16 16 18 17 21 19 14 13 15 20 22 21 17 13 17 19 18 20 15 12 17 20 16 11 9 12 13 10 10 9 10 13 14 9 5 8 10 9 10 11 12 12 13 16 15 11 18 23 18 18
19 17 13 11 10 9 10 11 11 9 6 5 5 2 2 4 3 3 5 4 3 7 8 5 11 11 15 16 18 23 21 20 16 20 25 20 23 25 18 18 19 15 17 18 17 15 15 21 21 18 16 14 17 19 19 20 18 16 16 16 13 9 7 9 11 9 7 8 11 14 16 12 7 8 11 10 12 14 13 12 13 15 16 13 18 22 18 18
17 13 10 9 9 7 9 11 8 7 5 4 2 3 5 4 2 4 4 2 3 7 9 4 8 10 16 15 14 18 19 18 15 20 19 14 17 20 15 13 13 11 12 14 16 17 18 20 16 16 21 19 16 17 17 18 20 17 12 10 10 8 4 4 6 6 6 7 12 15 17 15 9 7 11 13 15 16 14 15 15 16 19 19 20 22 22 22
15 11 9 8 8 5 7 9 6 4 5 2 3 4 5 3 2 5 3 3 3 4 5 5 9 8 15 17 14 17 17 15 13 18 16 11 11 13 12 10 9 10 12 13 15 16 15 17 15 16 24 24 16 14 12 13 16 16 12 10 10 8 5 5 5 5 7 9 11 14 16 14 9 8 15 17 16 18 17 16 19 21 22 23 23 26 26 24
13 11 8 7 8 7 6 7 6 4 3 1 2 3 3 3 3 4 3 1 1 1 2 7 14 11 13 16 14 17 17 14 14 17 17 14 11 13 16 16 15 13 11 13 15 13 12 17 21 19 20 23 18 12 11 12 15 16 13 11 10 8 7 8 7 7 8 9 12 15 14 11 7 7 18 21 18 22 23 21 23 25 26 27 26 27 26 25
12 10 8 6 7 7 7 7 5 3 3 2 4 3 3 5 4 3 5 4 1 3 6 7 10 12 11 15 14 16 15 13 16 18 16 15 12 12 14 17 20 15 10 13 13 11 12 14 18 16 13 19 19 14 12 12 14 14 13 12 10 9 8 7 7 8 8 9 12 14 10 7 6 5 13 18 18 22 25 26 28 25 25 28 26 25 26 26
10 9 8 6 6 6 6 7 5 3 3 4 4 4 5 6 4 2 3 2 1 4 9 10 10 10 10 14 15 18 15 11 17 18 14 15 13 12 13 14 19 18 11 11 8 9 12 10 13 15 13 16 18 15 14 14 12 11 12 11 9 10 8 5 7 6 4 6 8 8 3 1 2 5 9 13 15 19 22 24 31 28 24 25 25 24 25 26
10 8 8 8 7 5 4 7 6 4 6 6 5 5 7 6 4 3 1 1 1 5 9 10 8 7 9 11 14 20 18 11 17 15 11 16 15 17 16 12 18 20 13 10 7 7 10 9 16 20 18 21 21 17 15 14 10 8 11 12 10 13 10 5 7 4 1 5 6 6 3 5 5 5 9 14 15 17 18 21 28 29 28 26 25 26 26 25
10 8 9 10 8 5 7 8 7 6 8 6 5 6 7 7 6 6 3 3 4 6 8 6 6 8 10 10 12 18 16 11 16 13 10 15 14 18 19 13 17 21 15 13 8 7 9 8 17 23 19 22 26 22 18 16 13 8 10 12 10 12 11 6 6 4 3 6 5 8 9 7 7 5 8 15 16 13 15 20 23 25 27 25 24 27 26 25
11 8 11 11 6 4 8 9 7 8 8 5 7 11 8 8 9 7 6 7 6 5 6 4 4 8 11 10 12 18 14 10 15 13 10 12 11 17 20 13 16 20 19 17 8 7 10 6 13 21 19 19 22 21 15 16 18 14 10 11 9 9 9 6 5 5 6 7 5 9 14 9 8 7 9 14 16 14 12 13 19 22 23 24 24 25 25 25
11 10 9 8 8 7 8 10 9 10 8 5 8 9 5 6 10 9 10 11 8 5 7 5 4 8 11 11 13 16 13 11 14 12 9 9 10 17 20 13 15 20 20 18 8 5 8 4 9 18 18 16 15 12 10 13 17 17 13 11 9 7 8 8 5 5 6 6 5 9 11 8 7 9 13 14 14 18 14 10 14 19 23 25 25 25 25 26
10 8 4 5 10 8 7 9 9 8 6 5 7 6 5 7 10 12 13 11 7 5 5 5 6 7 10 14 15 13 12 14 15 11 9 11 11 15 20 15 13 18 20 18 10 6 6 4 8 13 15 14 10 9 11 12 12 14 12 11 10 8 7 8 7 6 6 6 5 7 7 6 5 8 15 16 14 20 19 14 13 18 24 26 25 26 26 27
9 6 3 7 9 8 6 6 7 6 4 5 6 6 7 7 9 13 14 12 10 7 7 9 10 9 7 10 14 12 10 13 14 11 8 12 12 10 17 18 14 16 17 13 11 7 3 4 7 9 11 12 12 13 14 12 12 11 8 9 11 9 8 9 8 7 7 6 6 6 5 5 3 6 13 14 12 17 21 19 16 20 26 27 26 28 28 28
7 3 3 7 10 9 6 5 5 4 4 5 5 6 7 6 6 12 12 11 10 9 9 11 11 10 10 7 12 12 10 11 13 10 8 13 13 10 18 24 19 18 14 10 10 5 2 4 7 9 11 12 14 17 16 14 14 14 11 9 10 9 9 8 7 8 8 7 6 6 5 1 3 5 11 11 12 19 24 23 20 23 27 27 28 29 29 28
8 6 7 10 11 8 5 4 4 4 4 6 6 8 11 7 6 9 7 7 8 7 7 8 10 11 10 9 14 12 12 12 11 11 11 12 13 14 22 25 21 18 12 8 9 6 4 5 7 8 9 10 13 16 17 16 13 13 12 10 8 10 12 9 6 6 5 6 6 5 4 1 4 2 6 8 16 22 26 28 26 24 26 26 28 30 30 30
13 12 10 9 10 7 4 4 5 3 4 7 8 8 8 9 7 7 4 4 5 5 4 7 9 10 9 11 13 12 12 11 8 10 10 10 12 19 26 26 22 15 10 9 8 6 5 5 6 8 8 9 11 13 15 16 11 9 10 10 11 13 14 11 7 5 4 8 11 7 3 4 2 4 5 8 14 17 21 29 30 26 26 26 29 32 32 31
13 10 6 7 10 8 6 6 6 5 6 8 9 9 5 5 6 7 5 3 5 5 5 7 10 12 12 11 9 10 11 7 5 8 9 8 10 15 23 25 21 14 12 13 10 7 7 5 6 9 9 10 11 11 11 12 9 8 11 14 15 16 13 11 7 6 6 9 12 8 1 5 5 7 9 10 11 12 17 26 28 27 28 28 29 33 34 33
8 5 1 4 9 10 10 12 9 5 6 7 7 8 7 1 5 5 3 4 6 7 7 11 15 13 12 10 7 9 12 9 6 7 9 9 8 10 18 23 21 15 13 13 11 7 5 4 7 10 10 9 9 9 11 12 11 11 13 16 17 16 14 11 7 6 6 6 8 7 3 8 7 7 9 9 11 11 15 22 25 26 29 29 29 32 36 35
5 3 4 4 5 8 9 10 7 3 5 7 5 6 9 4 3 3 2 1 7 9 7 11 13 8 11 10 6 9 12 11 9 9 11 11 8 10 17 20 18 12 13 11 11 7 3 5 8 11 11 13 12 13 15 15 15 15 13 14 16 16 15 10 7 7 7 5 7 7 8 10 8 7 8 8 9 11 12 18 24 26 28 28 28 31 36 36
5 5 7 8 5 5 5 6 7 6 8 8 4 5 9 6 4 2 1 1 8 9 6 8 10 7 11 9 8 9 11 11 11 10 11 10 10 12 13 15 14 13 13 11 11 5 3 6 8 10 11 12 13 15 16 14 15 16 15 13 14 17 16 11 8 11 10 7 6 6 11 11 8 10 10 7 9 13 15 19 24 27 27 27 29 32 34 35
8 7 9 10 9 11 14 16 14 9 7 5 2 4 7 5 5 3 2 3 6 6 5 7 10 7 13 10 6 6 7 6 9 11 10 10 11 11 11 12 13 16 14 12 8 4 4 6 7 10 10 6 6 9 12 14 15 15 15 14 12 14 16 14 12 11 10 9 8 5 8 10 9 10 9 9 12 15 18 23 26 28 28 28 30 31 32 33
11 9 11 14 14 15 18 16 10 6 4 3 2 3 5 5 5 3 2 2 3 5 5 9 12 6 9 9 6 6 6 5 3 9 10 9 10 9 9 9 10 14 14 9 6 4 3 4 7 9 6 4 4 5 9 14 16 14 14 16 13 12 13 14 13 10 8 9 9 7 6 6 6 10 12 14 18 18 18 22 26 28 30 31 32 31 32 33
15 14 14 14 11 11 12 8 2 2 2 1 2 3 4 5 5 4 3 2 3 5 5 7 14 10 4 10 11 9 11 13 6 2 5 9 11 10 10 9 9 12 13 8 5 6 3 3 6 7 3 3 3 6 8 9 14 15 16 18 17 13 10 10 10 8 7 8 9 9 7 4 3 9 13 16 19 19 18 21 24 26 30 34 34 33 34 34
18 19 17 12 8 9 10 5 2 3 3 3 3 2 3 3 3 4 2 1 4 5 5 6 9 5 7 11 9 8 10 13 11 7 4 11 14 14 14 14 13 12 11 9 6 6 5 4 5 6 4 4 5 6 5 4 7 9 9 11 13 13 11 9 8 8 8 7 7 6 5 3 2 4 10 15 17 17 19 24 26 27 28 30 30 31 33 33
Wind_Direction
322 324 327 326 325 323 320 313 305 300 293 288 284 281 281 282 287 292 297 302 306 311 311 313 319 331 337 333 334 325 314 305 293 279 265 254 240 236 230 228 233 228 225 227 217 204 211 222 217 216 218 219 225 227 227 225 221 220 222 235 240 239 240 243 250 249 255 262 186 162 146 127 217 236 177 197 214 242 254 151 81 78 105 127 138 143 148 150
316 316 319 319 321 322 322 320 315 310 302 295 289 284 279 278 280 284 291 296 301 305 306 309 312 327 334 331 341 331 316 310 304 289 269 254 244 238 231 228 229 228 225 220 210 211 219 218 213 211 214 218 220 220 224 221 216 221 222 228 234 240 242 240 249 247 248 251 184 134 116 163 249 272 243 235 217 218 239 131 99 95 103 118 133 139 147 150
320 316 314 312 314 317 318 319 318 315 310 304 297 291 283 278 276 277 281 287 294 298 302 306 308 321 330 332 342 333 324 319 306 288 274 262 249 239 232 231 229 228 226 216 207 216 226 224 216 210 214 220 220 215 217 217 212 219 225 232 230 236 246 245 247 246 256 276 333 95 115 192 238 249 249 252 247 227 223 156 115 115 120 126 135 142 149 153
322 319 316 313 311 310 312 314 314 314 312 309 303 300 292 282 275 273 275 280 286 291 297 302 305 314 325 334 340 340 333 318 298 265 266 272 253 242 233 230 228 227 227 218 204 210 228 238 227 214 216 221 222 217 216 216 210 212 221 237 236 232 241 247 250 250 264 300 308 322 106 235 257 233 244 244 251 235 228 196 142 134 134 136 141 148 155 157
324 321 319 317 313 308 306 308 310 310 311 310 307 304 300 293 281 273 272 275 280 286 292 297 300 307 319 328 338 345 331 313 290 192 254 295 273 255 236 227 225 222 223 219 207 210 227 240 234 221 217 221 222 219 219 217 213 215 223 232 240 243 241 241 248 250 255 244 263 279 225 268 277 260 255 253 259 247 255 189 144 143 144 146 150 153 157 158
324 321 319 318 316 311 307 306 306 307 308 308 307 305 302 301 293 281 271 270 274 279 286 291 295 302 313 319 329 333 299 270 85 69 292 314 300 272 244 228 220 217 217 214 212 222 229 232 232 223 217 219 223 221 219 216 215 221 229 231 235 245 253 256 261 269 266 243 242 263 265 273 283 275 257 252 255 268 3 121 140 144 152 151 153 157 160 158
323 320 317 316 315 313 311 308 304 303 305 306 306 305 302 301 300 292 278 270 268 272 280 285 291 297 306 313 319 300 261 250 268 298 289 296 299 287 257 230 216 213 212 210 214 223 225 224 225 222 219 217 223 225 222 218 218 223 232 235 234 238 246 259 267 277 233 249 256 261 266 263 263 264 258 259 253 66 60 118 137 139 146 145 149 154 158 156
322 320 318 316 316 315 314 312 306 301 300 301 304 304 304 302 300 296 285 274 268 270 275 279 286 293 302 313 316 291 255 251 261 281 292 295 301 302 280 239 224 216 210 211 215 220 222 224 221 219 221 219 220 224 226 223 219 223 231 236 240 240 238 247 255 250 204 229 247 254 258 247 243 256 258 303 284 104 87 112 128 131 136 138 147 150 154 159
320 319 318 316 315 315 314 314 310 305 299 296 297 299 302 301 299 295 287 276 268 268 271 276 282 286 297 304 299 285 261 255 257 255 295 325 316 295 275 244 232 220 215 215 216 220 222 224 222 219 226 227 224 225 227 227 220 219 228 235 240 243 239 239 239 230 217 225 234 237 242 241 243 250 243 46 37 105 98 102 118 126 135 137 141 146 154 161
320 317 316 315 314 313 313 313 312 309 304 297 293 292 295 297 296 292 287 279 269 267 269 272 276 281 288 286 277 270 256 243 233 230 271 307 300 295 276 245 231 219 217 218 218 221 222 224 223 222 233 237 232 231 228 229 229 221 226 231 234 244 245 241 234 224 223 232 233 231 235 239 239 238 210 54 45 101 96 85 94 97 122 132 133 143 152 158
320 317 316 314 313 312 310 309 309 308 306 301 294 289 288 291 293 291 286 279 273 268 268 268 274 278 276 270 260 249 235 215 244 292 295 297 297 292 271 246 237 226 218 219 221 221 223 227 226 224 230 235 236 237 233 234 236 231 233 232 226 237 244 237 232 230 229 230 229 235 240 240 239 231 113 66 69 112 114 113 115 19 38 105 134 148 153 157
321 319 317 316 314 312 310 307 306 305 305 302 296 288 284 285 287 290 286 279 275 269 267 266 269 274 274 265 253 248 244 242 266 291 282 282 288 281 265 250 244 235 223 221 223 223 224 227 229 230 225 227 236 238 234 234 235 235 237 241 226 230 239 227 220 227 230 228 223 227 240 240 235 182 96 92 97 115 134 129 125 117 74 110 140 150 156 161
323 321 319 316 315 312 310 307 304 302 301 300 297 290 284 282 282 286 286 278 272 268 266 265 265 268 265 261 255 256 257 253 264 277 270 272 276 271 265 253 245 240 233 230 225 222 223 226 230 234 232 230 231 233 242 234 231 233 227 229 231 227 233 222 213 220 223 224 214 208 231 237 198 106 99 109 117 123 130 116 109 138 150 129 134 148 160 165
324 324 321 317 315 312 310 307 304 301 299 297 295 291 283 280 281 284 285 279 272 266 264 262 265 263 256 261 267 269 267 261 262 264 262 265 267 266 260 249 242 238 236 238 234 227 223 224 230 236 237 237 235 234 246 239 225 230 224 219 226 230 230 213 207 216 219 217 207 202 231 224 118 94 97 112 129 127 110 99 109 131 138 97 111 141 160 166
327 325 322 319 316 313 309 306 304 302 299 296 293 292 288 283 285 287 283 278 270 262 263 264 260 257 259 267 274 280 278 264 258 258 253 251 256 258 252 241 235 231 232 234 236 237 227 219 224 232 233 235 240 236 233 233 221 218 221 218 215 225 233 211 201 211 215 209 206 211 228 184 119 104 104 105 125 122 105 103 114 132 143 144 151 141 145 159
327 325 321 319 317 313 311 306 305 304 302 301 295 293 291 288 288 288 282 276 268 258 255 259 251 243 259 273 276 276 269 253 252 256 246 241 244 245 244 236 228 224 224 227 228 233 230 218 219 226 229 228 232 234 225 222 217 209 214 218 212 212 231 221 198 202 210 210 207 211 216 153 133 120 109 108 115 115 117 119 124 146 155 162 170 159 144 148
323 322 318 317 316 314 313 309 306 304 304 306 302 297 295 290 286 281 276 269 263 255 244 247 250 245 254 267 275 268 255 245 245 245 237 232 231 232 236 229 221 216 215 218 220 224 227 220 215 218 226 226 216 222 224 214 209 205 207 216 216 210 222 231 201 190 199 211 209 204 214 177 134 131 119 121 123 119 127 130 135 150 152 149 157 154 147 146
319 316 313 313 314 314 313 310 306 303 304 307 304 299 292 284 280 275 270 266 258 249 246 245 245 254 256 247 249 252 246 240 229 223 224 220 218 221 227 227 217 207 207 210 211 214 219 215 211 210 215 221 214 212 215 211 205 200 200 205 219 214 214 230 217 181 187 208 212 200 210 182 129 135 133 128 131 128 133 141 146 152 152 146 146 146 154 154
315 311 308 309 312 314 314 310 305 304 306 308 307 302 294 285 277 266 254 244 230 220 225 219 206 211 283 244 234 240 238 237 220 215 214 206 207 212 221 229 220 204 200 204 201 203 209 207 207 210 207 209 211 211 211 215 209 201 199 199 215 220 210 228 227 179 182 202 208 209 205 161 130 138 138 133 139 133 132 140 146 152 158 154 143 137 154 161
312 309 307 306 308 311 312 310 307 307 307 309 311 303 293 278 264 254 241 231 225 222 231 217 198 212 256 277 264 237 226 230 225 227 226 212 206 207 214 224 219 205 200 203 193 195 203 206 207 209 207 205 209 213 212 219 221 207 201 198 212 224 212 225 224 177 177 197 208 214 189 143 138 139 133 137 147 145 139 145 153 157 160 158 145 140 148 157
311 307 306 304 304 307 308 307 306 305 305 307 301 283 269 261 266 294 286 251 236 231 240 243 222 220 243 264 272 268 260 247 219 219 227 215 209 207 207 211 213 205 201 205 194 192 204 214 213 208 207 207 208 214 212 219 230 219 208 202 208 224 219 221 218 170 169 200 207 186 141 135 144 131 129 143 153 163 157 155 165 163 156 155 147 144 144 143
317 310 306 302 301 304 305 304 302 301 301 300 284 266 260 263 277 299 305 281 256 242 240 245 244 238 239 253 262 269 283 268 225 222 220 204 206 206 197 200 211 205 197 203 194 189 206 219 213 205 207 209 208 213 212 218 231 233 221 210 203 219 223 221 213 174 169 205 193 150 136 144 140 124 136 159 166 175 168 161 164 159 154 156 152 149 146 145
325 319 314 306 300 302 305 302 299 297 296 291 274 263 266 272 276 283 287 284 272 256 240 235 239 242 239 243 253 258 258 250 234 232 217 199 203 205 200 198 208 207 194 200 200 191 204 214 208 203 206 210 208 208 211 217 228 236 234 220 204 209 218 223 209 178 166 194 180 142 142 140 128 134 156 173 181 172 165 163 156 158 162 161 156 150 149 153
327 324 322 315 306 305 306 302 299 299 296 287 274 268 274 278 276 282 283 279 277 260 243 233 230 234 234 234 241 246 239 232 235 232 216 207 204 202 206 202 202 211 200 200 205 204 209 206 201 204 205 208 209 203 206 214 219 230 237 231 210 205 219 228 196 166 160 187 177 131 128 135 136 161 167 175 184 163 158 169 161 163 166 161 155 152 153 161
326 324 323 320 313 310 308 305 307 307 297 284 274 272 275 271 270 285 297 273 273 258 243 232 225 228 229 229 228 231 235 232 235 234 219 214 208 198 206 205 201 212 204 201 206 210 212 202 198 205 203 205 211 204 202 208 214 223 227 231 221 205 216 210 163 155 170 200 174 129 128 176 161 179 169 166 179 166 164 174 175 168 163 163 161 158 162 171
325 323 322 320 315 312 309 307 310 312 303 292 283 279 285 276 261 270 287 266 271 258 231 211 211 216 214 217 216 217 235 235 232 235 223 212 210 205 205 202 203 214 206 199 206 212 210 202 197 204 203 202 210 209 201 203 216 218 213 230 233 218 221 206 170 171 193 210 181 152 160 182 173 199 177 163 175 175 170 172 182 172 161 169 176 170 170 174
325 322 320 318 315 312 304 296 300 308 304 298 295 288 297 292 250 212 221 260 260 233 209 187 183 193 199 204 198 198 224 223 219 227 220 208 208 213 216 202 199 214 208 195 203 208 204 201 195 200 203 198 205 210 199 200 215 214 201 221 234 237 233 202 171 185 205 220 204 187 193 180 180 201 173 166 178 180 178 174 179 175 168 176 182 173 169 171
325 321 318 317 313 308 299 294 297 301 297 305 311 294 292 274 229 195 208 256 274 187 198 180 169 177 196 197 189 195 215 208 200 211 211 211 209 211 222 215 203 207 208 202 200 198 200 202 194 196 201 194 203 211 199 200 213 210 199 214 231 247 236 190 177 197 206 224 226 204 204 199 188 189 171 172 181 187 188 178 173 181 180 173 165 160 165 170
324 320 316 315 312 309 308 301 292 291 293 311 309 285 281 182 189 229 225 262 334 360 350 159 161 179 197 194 191 199 214 224 218 189 195 211 212 209 222 224 214 208 210 213 206 195 198 204 196 193 202 198 199 208 203 201 209 208 203 210 222 241 235 207 201 202 203 224 232 206 200 208 202 178 173 177 187 194 193 184 179 179 174 163 156 155 164 173
326 320 313 310 312 321 322 302 289 297 296 282 282 249 149 147 175 238 237 271 346 333 326 175 169 190 198 192 192 199 209 229 219 174 182 208 209 211 229 236 229 214 207 213 210 200 192 202 201 192 204 206 194 205 209 199 203 216 208 199 208 223 237 231 209 197 203 227 234 213 198 208 218 181 174 184 193 191 184 183 180 165 156 162 163 157 168 178
326 317 305 303 312 321 310 298 302 325 309 257 219 160 175 187 226 245 242 309 345 326 323 232 197 204 197 189 191 198 207 223 203 163 174 204 200 208 228 241 240 221 205 204 206 204 190 195 204 191 199 206 194 203 210 190 195 222 218 185 198 212 223 241 209 195 209 220 227 218 207 212 222 192 175 182 190 187 184 181 169 158 157 160 161 162 176 178
322 309 296 298 313 311 292 302 319 316 299 268 166 175 206 205 232 246 254 351 314 304 357 326 295 256 201 193 191 193 201 217 200 166 172 193 190 199 211 219 216 202 200 191 194 204 190 192 205 194 198 203 194 196 199 180 193 222 225 193 194 195 183 205 208 209 224 228 226 218 213 216 226 202 177 177 185 182 187 183 159 156 161 158 164 171 174 166
313 303 290 287 308 314 304 313 309 267 267 255 194 212 233 239 232 224 227 310 298 274 342 312 301 281 214 196 190 189 197 210 199 174 173 187 189 195 208 215 207 198 196 184 188 200 188 191 198 194 194 195 189 189 188 182 196 215 220 201 195 192 181 192 201 208 221 230 230 224 219 219 230 196 170 176 184 177 180 177 156 153 157 159 170 173 163 153
304 300 296 286 292 298 296 300 294 255 223 227 255 243 228 253 248 209 222 230 221 273 280 283 294 286 233 200 190 188 197 208 191 175 173 184 192 193 203 214 210 207 200 185 192 197 182 182 189 189 186 184 191 201 188 183 196 210 214 200 199 205 189 187 201 206 215 223 221 217 219 228 226 169 162 176 179 175 178 167 151 149 153 156 167 164 151 148
302 305 305 295 284 281 274 268 268 255 215 223 259 246 233 252 257 255 257 243 234 263 280 286 284 275 226 199 197 196 203 205 182 176 177 181 188 192 196 208 206 205 195 181 198 197 177 165 174 189 195 191 207 217 195 188 197 205 206 194 200 212 193 182 206 201 217 235 216 199 197 354 170 146 158 170 168 179 185 156 140 148 157 158 159 153 147 147
303 307 299 285 282 281 256 250 254 246 232 240 256 245 247 254 258 286 293 149 251 274 293 290 254 234 203 191 197 198 204 198 174 174 179 181 189 194 195 200 199 198 188 178 197 190 177 170 172 186 202 200 210 218 197 192 197 190 198 199 203 215 205 187 202 180 71 243 210 185 163 94 123 152 152 159 171 186 180 142 132 149 162 163 156 148 147 150
307 297 284 280 278 261 234 233 239 245 250 258 256 250 263 270 267 276 266 228 241 261 293 289 207 197 191 185 190 191 193 184 174 173 173 180 190 196 197 201 198 197 193 193 196 171 177 180 173 185 200 195 204 217 201 192 206 191 186 202 207 214 215 201 200 185 188 225 201 193 203 163 156 184 158 168 181 175 151 132 134 148 157 159 157 152 150 152
319 296 280 276 257 221 230 231 226 239 253 264 260 262 272 277 276 284 286 279 272 262 282 290 198 190 185 183 187 185 182 175 175 172 170 181 187 194 203 207 197 195 194 201 199 163 187 181 166 187 196 185 199 218 198 189 216 213 183 201 216 213 207 191 199 203 196 215 213 206 211 193 180 185 168 181 177 144 128 137 144 152 155 153 155 158 155 152
322 305 287 253 211 203 236 240 227 229 243 248 254 264 270 277 283 285 282 283 290 276 268 280 254 213 196 188 180 177 179 178 176 170 172 186 183 193 206 205 192 191 193 205 206 163 202 196 159 186 190 178 190 212 192 183 214 215 190 198 223 227 209 188 190 209 201 205 215 215 211 199 194 174 167 187 173 137 137 161 160 160 158 151 154 162 157 151
316 305 292 205 205 217 238 245 235 228 237 243 251 267 279 288 291 286 282 282 284 271 260 278 271 232 200 184 173 173 180 176 179 175 172 189 183 185 198 199 193 191 193 205 204 178 211 198 157 176 179 177 184 199 198 186 196 208 195 192 210 219 212 202 193 204 216 208 205 222 215 195 205 173 167 184 169 144 150 162 160 158 153 150 155 160 158 156
311 298 251 202 217 236 249 249 236 225 233 246 254 264 270 282 284 283 281 267 257 257 252 265 267 255 240 197 173 175 178 170 183 182 165 188 186 175 198 204 198 191 188 201 206 194 205 167 154 171 181 186 189 194 204 198 186 199 206 200 204 203 204 208 196 193 216 216 209 231 222 202 214 161 164 179 163 148 151 146 148 156 152 153 160 160 160 162
301 277 245 237 243 249 257 256 235 222 239 251 247 245 257 271 270 275 271 242 236 245 245 260 261 258 271 231 176 175 179 167 183 187 162 178 181 173 197 199 192 186 184 196 203 177 95 159 172 186 190 186 185 192 207 209 190 194 217 217 201 200 209 216 201 191 205 211 220 234 212 232 346 144 164 176 153 143 144 142 151 161 156 156 161 160 160 163
289 274 279 274 266 256 251 268 257 231 241 258 260 251 249 245 248 265 258 217 217 226 234 259 253 247 259 220 178 174 180 172 178 184 163 168 179 178 189 193 190 187 182 190 193 150 120 183 180 178 185 183 185 191 205 215 201 196 216 222 211 207 205 213 221 204 206 210 212 224 190 115 329 223 173 158 147 146 150 155 160 161 159 160 158 159 162 164
295 288 281 269 267 261 244 272 283 280 281 283 292 284 246 223 238 266 256 202 208 221 241 254 241 241 247 214 182 173 178 171 177 185 165 163 178 178 184 190 190 183 175 189 194 158 162 195 181 174 178 182 188 186 195 208 207 202 208 211 228 226 197 195 224 208 209 223 215 217 186 143 186 202 164 148 158 159 156 158 159 157 159 159 154 156 161 163
299 293 264 233 247 253 250 270 283 294 303 300 309 316 291 211 223 256 280 278 256 260 272 264 255 251 234 201 172 174 175 158 175 182 155 151 173 177 181 185 185 180 178 185 185 171 182 198 188 186 181 182 190 181 183 195 195 207 208 196 217 233 201 185 218 217 208 222 222 232 163 121 150 171 163 164 177 171 147 145 150 154 156 153 150 154 159 161
308 312 271 224 233 236 249 271 279 286 304 311 317 322 331 48 171 218 288 321 294 281 276 269 263 244 203 173 165 183 170 150 169 168 141 153 178 176 173 178 187 188 170 170 181 182 192 210 211 208 194 185 190 173 173 187 191 206 211 193 203 232 222 196 201 225 225 212 224 241 158 138 154 163 165 177 183 171 147 140 144 148 150 149 149 154 158 160
312 329 343 327 261 238 245 258 259 262 292 305 324 327 325 349 115 155 170 277 290 280 270 274 265 216 161 151 167 183 165 151 166 165 151 161 167 158 166 180 193 172 131 156 195 194 199 240 248 236 198 182 193 181 172 187 199 204 209 197 197 221 235 222 186 199 224 223 221 212 154 144 159 172 186 192 165 142 138 141 143 144 146 147 151 155 157 159
341 329 330 340 315 273 281 272 263 277 292 295 310 313 311 332 47 63 119 291 285 257 233 279 273 201 156 153 168 180 166 151 162 164 153 160 155 145 167 195 191 152 137 180 201 183 209 240 245 231 199 185 197 186 169 181 201 203 204 204 199 207 222 233 214 197 202 224 243 191 146 144 166 181 185 172 134 132 140 140 139 141 143 147 153 157 159 162
348 328 320 333 320 290 287 282 272 273 285 291 290 293 307 348 41 34 22 357 306 264 246 287 279 208 164 157 158 169 160 154 173 162 144 163 168 151 172 195 175 158 172 193 189 178 251 246 209 207 211 196 188 187 182 190 201 203 201 202 207 206 206 220 235 227 207 221 253 227 163 167 177 175 170 142 120 122 128 130 137 145 147 150 156 161 164 166
350 338 321 322 315 292 287 289 279 257 252 256 249 279 310 356 31 22 348 345 321 313 312 305 301 273 169 142 78 54 17 349 190 157 142 165 174 161 180 192 163 164 181 185 175 184 259 260 196 191 215 191 171 249 239 203 194 198 197 198 208 211 203 207 224 235 224 223 238 238 223 216 176 153 153 142 126 121 126 134 144 152 155 159 164 167 169 169
353 342 324 316 310 297 300 315 320 259 271 293 295 297 314 343 359 342 327 315 295 310 329 327 320 320 104 90 56 30 4 1 7 165 165 167 171 173 185 188 170 171 178 175 181 185 200 253 199 177 200 188 182 288 271 195 185 198 200 198 203 208 210 208 212 217 213 218 232 232 228 237 180 148 152 151 143 143 149 149 151 156 161 166 170 172 172 170
355 346 336 321 296 293 304 324 10 348 335 342 347 278 264 294 300 293 318 309 276 303 341 336 320 334 74 70 40 1 356 358 345 319 184 166 173 176 182 187 177 172 178 175 184 201 204 228 200 177 186 176 184 252 264 167 181 206 207 204 204 204 205 207 217 220 209 210 230 230 209 212 228 166 152 154 155 158 163 164 164 163 162 165 172 174 174 172